Year,Month,Day,Hour,Minute,Value (Times are PST for temperature in C)
2008,04,02,00,00,5.80
2008,04,02,00,01,5.80
2008,04,02,00,02,5.70
2008,04,02,00,03,5.70
2008,04,02,00,04,5.70
2008,04,02,00,05,5.70
2008,04,02,00,06,5.70
2008,04,02,00,07,5.70
2008,04,02,00,08,5.70
2008,04,02,00,09,5.70
2008,04,02,00,10,5.70
2008,04,02,00,11,5.70
2008,04,02,00,12,5.70
2008,04,02,00,13,5.70
2008,04,02,00,14,5.70
2008,04,02,00,15,5.70
2008,04,02,00,16,5.70
2008,04,02,00,17,5.70
2008,04,02,00,18,5.70
2008,04,02,00,19,5.70
2008,04,02,00,20,5.70
2008,04,02,00,21,5.70
2008,04,02,00,22,5.70
2008,04,02,00,23,5.70
2008,04,02,00,24,5.70
2008,04,02,00,25,5.70
2008,04,02,00,26,5.70
2008,04,02,00,27,5.70
2008,04,02,00,28,5.70
2008,04,02,00,29,5.70
2008,04,02,00,30,5.70
2008,04,02,00,31,5.70
2008,04,02,00,32,5.70
2008,04,02,00,33,5.70
2008,04,02,00,34,5.70
2008,04,02,00,35,5.70
2008,04,02,00,36,5.70
2008,04,02,00,37,5.70
2008,04,02,00,38,5.70
2008,04,02,00,39,5.70
2008,04,02,00,40,5.70
2008,04,02,00,41,5.70
2008,04,02,00,42,5.70
2008,04,02,00,43,5.70
2008,04,02,00,44,5.80
2008,04,02,00,45,5.70
2008,04,02,00,46,5.80
2008,04,02,00,47,5.70
2008,04,02,00,48,5.70
2008,04,02,00,49,5.70
2008,04,02,00,50,5.70
2008,04,02,00,51,5.70
2008,04,02,00,52,5.70
2008,04,02,00,53,5.70
2008,04,02,00,54,5.80
2008,04,02,00,55,5.80
2008,04,02,00,56,5.80
2008,04,02,00,57,5.80
2008,04,02,00,58,5.80
2008,04,02,00,59,5.80
2008,04,02,01,00,5.80
2008,04,02,01,01,5.70
2008,04,02,01,02,5.70
2008,04,02,01,03,5.70
2008,04,02,01,04,5.70
2008,04,02,01,05,5.70
2008,04,02,01,06,5.70
2008,04,02,01,07,5.70
2008,04,02,01,08,5.70
2008,04,02,01,09,5.70
2008,04,02,01,10,5.70
2008,04,02,01,11,5.70
2008,04,02,01,12,5.70
2008,04,02,01,13,5.70
2008,04,02,01,14,5.70
2008,04,02,01,15,5.70
2008,04,02,01,16,5.70
2008,04,02,01,17,5.70
2008,04,02,01,18,5.70
2008,04,02,01,19,5.70
2008,04,02,01,20,5.60
2008,04,02,01,21,5.60
2008,04,02,01,22,5.60
2008,04,02,01,23,5.60
2008,04,02,01,24,5.60
2008,04,02,01,25,5.60
2008,04,02,01,26,5.60
2008,04,02,01,27,5.60
2008,04,02,01,28,5.60
2008,04,02,01,29,5.60
2008,04,02,01,30,5.60
2008,04,02,01,31,5.60
2008,04,02,01,32,5.60
2008,04,02,01,33,5.60
2008,04,02,01,34,5.60
2008,04,02,01,35,5.60
2008,04,02,01,36,5.60
2008,04,02,01,37,5.60
2008,04,02,01,38,5.60
2008,04,02,01,39,5.60
2008,04,02,01,40,5.60
2008,04,02,01,41,5.60
2008,04,02,01,42,5.60
2008,04,02,01,43,5.60
2008,04,02,01,44,5.60
2008,04,02,01,45,5.60
2008,04,02,01,46,5.60
2008,04,02,01,47,5.60
2008,04,02,01,48,5.60
2008,04,02,01,49,5.60
2008,04,02,01,50,5.60
2008,04,02,01,51,5.60
2008,04,02,01,52,5.60
2008,04,02,01,53,5.60
2008,04,02,01,54,5.60
2008,04,02,01,55,5.60
2008,04,02,01,56,5.60
2008,04,02,01,57,5.50
2008,04,02,01,58,5.50
2008,04,02,01,59,5.50
2008,04,02,02,00,5.50
2008,04,02,02,01,5.60
2008,04,02,02,02,5.60
2008,04,02,02,03,5.50
2008,04,02,02,04,5.50
2008,04,02,02,05,5.50
2008,04,02,02,06,5.50
2008,04,02,02,07,5.50
2008,04,02,02,08,5.50
2008,04,02,02,09,5.50
2008,04,02,02,10,5.50
2008,04,02,02,11,5.50
2008,04,02,02,12,5.50
2008,04,02,02,13,5.50
2008,04,02,02,14,5.50
2008,04,02,02,15,5.50
2008,04,02,02,16,5.50
2008,04,02,02,17,5.50
2008,04,02,02,18,5.40
2008,04,02,02,19,5.40
2008,04,02,02,20,5.40
2008,04,02,02,21,5.40
2008,04,02,02,22,5.40
2008,04,02,02,23,5.40
2008,04,02,02,24,5.40
2008,04,02,02,25,5.40
2008,04,02,02,26,5.40
2008,04,02,02,27,5.40
2008,04,02,02,28,5.40
2008,04,02,02,29,5.40
2008,04,02,02,30,5.40
2008,04,02,02,31,5.40
2008,04,02,02,32,5.40
2008,04,02,02,33,5.40
2008,04,02,02,34,5.40
2008,04,02,02,35,5.40
2008,04,02,02,36,5.40
2008,04,02,02,37,5.30
2008,04,02,02,38,5.30
2008,04,02,02,39,5.30
2008,04,02,02,40,5.30
2008,04,02,02,41,5.30
2008,04,02,02,42,5.30
2008,04,02,02,43,5.40
2008,04,02,02,44,5.40
2008,04,02,02,45,5.40
2008,04,02,02,46,5.40
2008,04,02,02,47,5.40
2008,04,02,02,48,5.40
2008,04,02,02,49,5.30
2008,04,02,02,50,5.30
2008,04,02,02,51,5.30
2008,04,02,02,52,5.30
2008,04,02,02,53,5.30
2008,04,02,02,54,5.30
2008,04,02,02,55,5.30
2008,04,02,02,56,5.20
2008,04,02,02,57,5.20
2008,04,02,02,58,5.20
2008,04,02,02,59,5.20
2008,04,02,03,00,5.10
2008,04,02,03,01,5.10
2008,04,02,03,02,5.10
2008,04,02,03,03,5.10
2008,04,02,03,04,5.00
2008,04,02,03,05,5.00
2008,04,02,03,06,4.90
2008,04,02,03,07,4.90
2008,04,02,03,08,4.90
2008,04,02,03,09,4.80
2008,04,02,03,10,4.80
2008,04,02,03,11,4.80
2008,04,02,03,12,4.80
2008,04,02,03,13,4.80
2008,04,02,03,14,4.70
2008,04,02,03,15,4.70
2008,04,02,03,16,4.70
2008,04,02,03,17,4.70
2008,04,02,03,18,4.60
2008,04,02,03,19,4.60
2008,04,02,03,20,4.60
2008,04,02,03,21,4.50
2008,04,02,03,22,4.50
2008,04,02,03,23,4.50
2008,04,02,03,24,4.40
2008,04,02,03,25,4.40
2008,04,02,03,26,4.40
2008,04,02,03,27,4.30
2008,04,02,03,28,4.30
2008,04,02,03,29,4.30
2008,04,02,03,30,4.30
2008,04,02,03,31,4.20
2008,04,02,03,32,4.20
2008,04,02,03,33,4.20
2008,04,02,03,34,4.10
2008,04,02,03,35,4.10
2008,04,02,03,36,4.10
2008,04,02,03,37,4.10
2008,04,02,03,38,4.00
2008,04,02,03,39,4.00
2008,04,02,03,40,3.90
2008,04,02,03,41,3.90
2008,04,02,03,42,3.90
2008,04,02,03,43,3.90
2008,04,02,03,44,3.90
2008,04,02,03,45,3.80
2008,04,02,03,46,3.80
2008,04,02,03,47,3.80
2008,04,02,03,48,3.80
2008,04,02,03,49,3.80
2008,04,02,03,50,3.80
2008,04,02,03,51,3.70
2008,04,02,03,52,3.70
2008,04,02,03,53,3.70
2008,04,02,03,54,3.70
2008,04,02,03,55,3.70
2008,04,02,03,56,3.70
2008,04,02,03,57,3.60
2008,04,02,03,58,3.60
2008,04,02,03,59,3.60
2008,04,02,04,00,3.60
2008,04,02,04,01,3.50
2008,04,02,04,02,3.50
2008,04,02,04,03,3.50
2008,04,02,04,04,3.40
2008,04,02,04,05,3.40
2008,04,02,04,06,3.40
2008,04,02,04,07,3.40
2008,04,02,04,08,3.30
2008,04,02,04,09,3.30
2008,04,02,04,10,3.30
2008,04,02,04,11,3.30
2008,04,02,04,12,3.30
2008,04,02,04,13,3.30
2008,04,02,04,14,3.30
2008,04,02,04,15,3.30
2008,04,02,04,16,3.30
2008,04,02,04,17,3.30
2008,04,02,04,18,3.20
2008,04,02,04,19,3.20
2008,04,02,04,20,3.20
2008,04,02,04,21,3.20
2008,04,02,04,22,3.20
2008,04,02,04,23,3.20
2008,04,02,04,24,3.10
2008,04,02,04,25,3.10
2008,04,02,04,26,3.10
2008,04,02,04,27,3.10
2008,04,02,04,28,3.10
2008,04,02,04,29,3.00
2008,04,02,04,30,3.00
2008,04,02,04,31,3.00
2008,04,02,04,32,2.90
2008,04,02,04,33,2.90
2008,04,02,04,34,2.90
2008,04,02,04,35,2.90
2008,04,02,04,36,2.90
2008,04,02,04,37,2.80
2008,04,02,04,38,2.80
2008,04,02,04,39,2.80
2008,04,02,04,40,2.80
2008,04,02,04,41,2.80
2008,04,02,04,42,2.70
2008,04,02,04,43,2.70
2008,04,02,04,44,2.70
2008,04,02,04,45,2.70
2008,04,02,04,46,2.70
2008,04,02,04,47,2.60
2008,04,02,04,48,2.60
2008,04,02,04,49,2.60
2008,04,02,04,50,2.60
2008,04,02,04,51,2.60
2008,04,02,04,52,2.60
2008,04,02,04,53,2.50
2008,04,02,04,54,2.50
2008,04,02,04,55,2.50
2008,04,02,04,56,2.40
2008,04,02,04,57,2.40
2008,04,02,04,58,2.40
2008,04,02,04,59,2.40
2008,04,02,05,00,2.30
2008,04,02,05,01,2.30
2008,04,02,05,02,2.30
2008,04,02,05,03,2.30
2008,04,02,05,04,2.20
2008,04,02,05,05,2.20
2008,04,02,05,06,2.20
2008,04,02,05,07,2.20
2008,04,02,05,08,2.10
2008,04,02,05,09,2.10
2008,04,02,05,10,2.10
2008,04,02,05,11,2.00
2008,04,02,05,12,2.00
2008,04,02,05,13,2.00
2008,04,02,05,14,1.90
2008,04,02,05,15,1.90
2008,04,02,05,16,1.90
2008,04,02,05,17,1.90
2008,04,02,05,18,1.90
2008,04,02,05,19,1.90
2008,04,02,05,20,1.90
2008,04,02,05,21,1.90
2008,04,02,05,22,1.90
2008,04,02,05,23,1.90
2008,04,02,05,24,1.90
2008,04,02,05,25,1.90
2008,04,02,05,26,1.90
2008,04,02,05,27,1.90
2008,04,02,05,28,1.90
2008,04,02,05,29,1.90
2008,04,02,05,30,1.90
2008,04,02,05,31,1.90
2008,04,02,05,32,2.00
2008,04,02,05,33,2.00
2008,04,02,05,34,2.00
2008,04,02,05,35,2.00
2008,04,02,05,36,2.00
2008,04,02,05,37,2.10
2008,04,02,05,38,2.10
2008,04,02,05,39,2.10
2008,04,02,05,40,2.10
2008,04,02,05,41,2.00
2008,04,02,05,42,2.00
2008,04,02,05,43,2.00
2008,04,02,05,44,1.90
2008,04,02,05,45,1.90
2008,04,02,05,46,1.90
2008,04,02,05,47,1.80
2008,04,02,05,48,1.80
2008,04,02,05,49,1.80
2008,04,02,05,50,1.80
2008,04,02,05,51,1.70
2008,04,02,05,52,1.70
2008,04,02,05,53,1.70
2008,04,02,05,54,1.70
2008,04,02,05,55,1.70
2008,04,02,05,56,1.70
2008,04,02,05,57,1.70
2008,04,02,05,58,1.70
2008,04,02,05,59,1.70
2008,04,02,06,00,1.70
2008,04,02,06,01,1.70
2008,04,02,06,02,1.70
2008,04,02,06,03,1.60
2008,04,02,06,04,1.60
2008,04,02,06,05,1.60
2008,04,02,06,06,1.60
2008,04,02,06,07,1.60
2008,04,02,06,08,1.60
2008,04,02,06,09,1.60
2008,04,02,06,10,1.60
2008,04,02,06,11,1.60
2008,04,02,06,12,1.70
2008,04,02,06,13,1.70
2008,04,02,06,14,1.70
2008,04,02,06,15,1.70
2008,04,02,06,16,1.70
2008,04,02,06,17,1.80
2008,04,02,06,18,1.80
2008,04,02,06,19,1.80
2008,04,02,06,20,1.80
2008,04,02,06,21,1.80
2008,04,02,06,22,1.90
2008,04,02,06,23,1.90
2008,04,02,06,24,1.90
2008,04,02,06,25,1.90
2008,04,02,06,26,1.90
2008,04,02,06,27,1.90
2008,04,02,06,28,1.90
2008,04,02,06,29,1.90
2008,04,02,06,30,1.90
2008,04,02,06,31,1.90
2008,04,02,06,32,1.90
2008,04,02,06,33,1.90
2008,04,02,06,34,1.90
2008,04,02,06,35,1.90
2008,04,02,06,36,1.90
2008,04,02,06,37,1.90
2008,04,02,06,38,1.90
2008,04,02,06,39,1.90
2008,04,02,06,40,1.90
2008,04,02,06,41,1.90
2008,04,02,06,42,1.80
2008,04,02,06,43,1.80
2008,04,02,06,44,1.80
2008,04,02,06,45,1.80
2008,04,02,06,46,1.80
2008,04,02,06,47,1.80
2008,04,02,06,48,1.80
2008,04,02,06,49,1.80
2008,04,02,06,50,1.80
2008,04,02,06,51,1.80
2008,04,02,06,52,1.80
2008,04,02,06,53,1.80
2008,04,02,06,54,1.80
2008,04,02,06,55,1.80
2008,04,02,06,56,1.80
2008,04,02,06,57,1.80
2008,04,02,06,58,1.80
2008,04,02,06,59,1.80
2008,04,02,07,00,1.80
2008,04,02,07,01,1.80
2008,04,02,07,02,1.80
2008,04,02,07,03,1.80
2008,04,02,07,04,1.80
2008,04,02,07,05,1.80
2008,04,02,07,06,1.80
2008,04,02,07,07,1.80
2008,04,02,07,08,1.80
2008,04,02,07,09,1.80
2008,04,02,07,10,1.80
2008,04,02,07,11,1.80
2008,04,02,07,12,1.80
2008,04,02,07,13,1.80
2008,04,02,07,14,1.80
2008,04,02,07,15,1.80
2008,04,02,07,16,1.80
2008,04,02,07,17,1.90
2008,04,02,07,18,1.90
2008,04,02,07,19,1.90
2008,04,02,07,20,1.90
2008,04,02,07,21,1.90
2008,04,02,07,22,1.90
2008,04,02,07,23,1.90
2008,04,02,07,24,1.90
2008,04,02,07,25,1.90
2008,04,02,07,26,1.90
2008,04,02,07,27,1.90
2008,04,02,07,28,1.90
2008,04,02,07,29,1.90
2008,04,02,07,30,2.00
2008,04,02,07,31,2.00
2008,04,02,07,32,2.00
2008,04,02,07,33,2.10
2008,04,02,07,34,2.10
2008,04,02,07,35,2.10
2008,04,02,07,36,2.10
2008,04,02,07,37,2.10
2008,04,02,07,38,2.10
2008,04,02,07,39,2.20
2008,04,02,07,40,2.20
2008,04,02,07,41,2.20
2008,04,02,07,42,2.20
2008,04,02,07,43,2.20
2008,04,02,07,44,2.30
2008,04,02,07,45,2.30
2008,04,02,07,46,2.30
2008,04,02,07,47,2.30
2008,04,02,07,48,2.40
2008,04,02,07,49,2.40
2008,04,02,07,50,2.40
2008,04,02,07,51,2.50
2008,04,02,07,52,2.50
2008,04,02,07,53,2.50
2008,04,02,07,54,2.60
2008,04,02,07,55,2.60
2008,04,02,07,56,2.70
2008,04,02,07,57,2.70
2008,04,02,07,58,2.70
2008,04,02,07,59,2.80
2008,04,02,08,00,2.80
2008,04,02,08,01,2.90
2008,04,02,08,02,2.90
2008,04,02,08,03,3.00
2008,04,02,08,04,3.10
2008,04,02,08,05,3.10
2008,04,02,08,06,3.20
2008,04,02,08,07,3.20
2008,04,02,08,08,3.30
2008,04,02,08,09,3.30
2008,04,02,08,10,3.30
2008,04,02,08,11,3.40
2008,04,02,08,12,3.40
2008,04,02,08,13,3.50
2008,04,02,08,14,3.60
2008,04,02,08,15,3.60
2008,04,02,08,16,3.70
2008,04,02,08,17,3.80
2008,04,02,08,18,3.80
2008,04,02,08,19,3.90
2008,04,02,08,20,4.00
2008,04,02,08,21,4.10
2008,04,02,08,22,4.20
2008,04,02,08,23,4.20
2008,04,02,08,24,4.30
2008,04,02,08,25,4.40
2008,04,02,08,26,4.40
2008,04,02,08,27,4.50
2008,04,02,08,28,4.50
2008,04,02,08,29,4.60
2008,04,02,08,30,4.70
2008,04,02,08,31,4.70
2008,04,02,08,32,4.70
2008,04,02,08,33,4.80
2008,04,02,08,34,4.80
2008,04,02,08,35,4.90
2008,04,02,08,36,4.90
2008,04,02,08,37,5.00
2008,04,02,08,38,5.10
2008,04,02,08,39,5.10
2008,04,02,08,40,5.20
2008,04,02,08,41,5.20
2008,04,02,08,42,5.20
2008,04,02,08,43,5.30
2008,04,02,08,44,5.30
2008,04,02,08,45,5.30
2008,04,02,08,46,5.40
2008,04,02,08,47,5.40
2008,04,02,08,48,5.50
2008,04,02,08,49,5.60
2008,04,02,08,50,5.60
2008,04,02,08,51,5.60
2008,04,02,08,52,5.60
2008,04,02,08,53,5.60
2008,04,02,08,54,5.60
2008,04,02,08,55,5.70
2008,04,02,08,56,5.70
2008,04,02,08,57,5.70
2008,04,02,08,58,5.70
2008,04,02,08,59,5.70
2008,04,02,09,00,5.80
2008,04,02,09,01,5.80
2008,04,02,09,02,5.80
2008,04,02,09,03,5.80
2008,04,02,09,04,5.80
2008,04,02,09,05,5.80
2008,04,02,09,06,5.90
2008,04,02,09,07,5.90
2008,04,02,09,08,5.90
2008,04,02,09,09,5.90
2008,04,02,09,10,5.90
2008,04,02,09,11,5.90
2008,04,02,09,12,6.00
2008,04,02,09,13,6.00
2008,04,02,09,14,6.00
2008,04,02,09,15,6.00
2008,04,02,09,16,6.00
2008,04,02,09,17,6.00
2008,04,02,09,18,6.00
2008,04,02,09,19,6.00
2008,04,02,09,20,6.00
2008,04,02,09,21,6.00
2008,04,02,09,22,6.00
2008,04,02,09,23,6.10
2008,04,02,09,24,6.10
2008,04,02,09,25,6.10
2008,04,02,09,26,6.20
2008,04,02,09,27,6.20
2008,04,02,09,28,6.20
2008,04,02,09,29,6.20
2008,04,02,09,30,6.20
2008,04,02,09,31,6.20
2008,04,02,09,32,6.20
2008,04,02,09,33,6.20
2008,04,02,09,34,6.20
2008,04,02,09,35,6.20
2008,04,02,09,36,6.20
2008,04,02,09,37,6.20
2008,04,02,09,38,6.20
2008,04,02,09,39,6.20
2008,04,02,09,40,6.20
2008,04,02,09,41,6.20
2008,04,02,09,42,6.20
2008,04,02,09,43,6.20
2008,04,02,09,44,6.30
2008,04,02,09,45,6.30
2008,04,02,09,46,6.30
2008,04,02,09,47,6.30
2008,04,02,09,48,6.30
2008,04,02,09,49,6.30
2008,04,02,09,50,6.30
2008,04,02,09,51,6.40
2008,04,02,09,52,6.40
2008,04,02,09,53,6.50
2008,04,02,09,54,6.50
2008,04,02,09,55,6.50
2008,04,02,09,56,6.40
2008,04,02,09,57,6.40
2008,04,02,09,58,6.40
2008,04,02,09,59,6.40
2008,04,02,10,00,6.40
2008,04,02,10,01,6.40
2008,04,02,10,02,6.40
2008,04,02,10,03,6.40
2008,04,02,10,04,6.50
2008,04,02,10,05,6.50
2008,04,02,10,06,6.50
2008,04,02,10,07,6.50
2008,04,02,10,08,6.50
2008,04,02,10,09,6.50
2008,04,02,10,10,6.50
2008,04,02,10,11,6.50
2008,04,02,10,12,6.60
2008,04,02,10,13,6.50
2008,04,02,10,14,6.50
2008,04,02,10,15,6.60
2008,04,02,10,16,6.60
2008,04,02,10,17,6.60
2008,04,02,10,18,6.70
2008,04,02,10,19,6.60
2008,04,02,10,20,6.60
2008,04,02,10,21,6.60
2008,04,02,10,22,6.60
2008,04,02,10,23,6.60
2008,04,02,10,24,6.60
2008,04,02,10,25,6.70
2008,04,02,10,26,6.70
2008,04,02,10,27,6.70
2008,04,02,10,28,6.70
2008,04,02,10,29,6.80
2008,04,02,10,30,6.90
2008,04,02,10,31,6.90
2008,04,02,10,32,6.90
2008,04,02,10,33,6.90
2008,04,02,10,34,7.00
2008,04,02,10,35,7.00
2008,04,02,10,36,6.90
2008,04,02,10,37,6.90
2008,04,02,10,38,6.90
2008,04,02,10,39,6.90
2008,04,02,10,40,6.80
2008,04,02,10,41,6.80
2008,04,02,10,42,6.80
2008,04,02,10,43,6.80
2008,04,02,10,44,6.80
2008,04,02,10,45,6.80
2008,04,02,10,46,6.80
2008,04,02,10,47,6.80
2008,04,02,10,48,6.90
2008,04,02,10,49,6.90
2008,04,02,10,50,7.00
2008,04,02,10,51,7.10
2008,04,02,10,52,7.10
2008,04,02,10,53,7.10
2008,04,02,10,54,7.20
2008,04,02,10,55,7.30
2008,04,02,10,56,7.40
2008,04,02,10,57,7.50
2008,04,02,10,58,7.50
2008,04,02,10,59,7.40
2008,04,02,11,00,7.30
2008,04,02,11,01,7.20
2008,04,02,11,02,7.20
2008,04,02,11,03,7.20
2008,04,02,11,04,7.30
2008,04,02,11,05,7.40
2008,04,02,11,06,7.40
2008,04,02,11,07,7.40
2008,04,02,11,08,7.50
2008,04,02,11,09,7.60
2008,04,02,11,10,7.60
2008,04,02,11,11,7.50
2008,04,02,11,12,7.50
2008,04,02,11,13,7.50
2008,04,02,11,14,7.40
2008,04,02,11,15,7.30
2008,04,02,11,16,7.40
2008,04,02,11,17,7.50
2008,04,02,11,18,7.60
2008,04,02,11,19,7.60
2008,04,02,11,20,7.50
2008,04,02,11,21,7.40
2008,04,02,11,22,7.40
2008,04,02,11,23,7.30
2008,04,02,11,24,7.40
2008,04,02,11,25,7.40
2008,04,02,11,26,7.60
2008,04,02,11,27,7.60
2008,04,02,11,28,7.70
2008,04,02,11,29,7.70
2008,04,02,11,30,7.80
2008,04,02,11,31,7.80
2008,04,02,11,32,7.80
2008,04,02,11,33,7.80
2008,04,02,11,34,7.80
2008,04,02,11,35,7.70
2008,04,02,11,36,7.60
2008,04,02,11,37,7.60
2008,04,02,11,38,7.70
2008,04,02,11,39,7.70
2008,04,02,11,40,7.70
2008,04,02,11,41,7.70
2008,04,02,11,42,7.70
2008,04,02,11,43,7.80
2008,04,02,11,44,7.80
2008,04,02,11,45,7.80
2008,04,02,11,46,7.90
2008,04,02,11,47,7.90
2008,04,02,11,48,7.80
2008,04,02,11,49,7.80
2008,04,02,11,50,7.70
2008,04,02,11,51,7.70
2008,04,02,11,52,7.70
2008,04,02,11,53,7.70
2008,04,02,11,54,7.60
2008,04,02,11,55,7.70
2008,04,02,11,56,7.70
2008,04,02,11,57,7.70
2008,04,02,11,58,7.70
2008,04,02,11,59,7.70
2008,04,02,12,00,7.60
2008,04,02,12,01,7.70
2008,04,02,12,02,7.70
2008,04,02,12,03,7.70
2008,04,02,12,04,7.80
2008,04,02,12,05,7.80
2008,04,02,12,06,7.90
2008,04,02,12,07,8.00
2008,04,02,12,08,8.10
2008,04,02,12,09,8.20
2008,04,02,12,10,8.20
2008,04,02,12,11,8.30
2008,04,02,12,12,8.40
2008,04,02,12,13,8.30
2008,04,02,12,14,8.20
2008,04,02,12,15,8.30
2008,04,02,12,16,8.20
2008,04,02,12,17,8.20
2008,04,02,12,18,8.10
2008,04,02,12,19,8.20
2008,04,02,12,20,8.20
2008,04,02,12,21,8.30
2008,04,02,12,22,8.30
2008,04,02,12,23,8.40
2008,04,02,12,24,8.40
2008,04,02,12,25,8.40
2008,04,02,12,26,8.30
2008,04,02,12,27,8.30
2008,04,02,12,28,8.40
2008,04,02,12,29,8.40
2008,04,02,12,30,8.40
2008,04,02,12,31,8.40
2008,04,02,12,32,8.40
2008,04,02,12,33,8.30
2008,04,02,12,34,8.40
2008,04,02,12,35,8.40
2008,04,02,12,36,8.40
2008,04,02,12,37,8.40
2008,04,02,12,38,8.40
2008,04,02,12,39,8.50
2008,04,02,12,40,8.50
2008,04,02,12,41,8.60
2008,04,02,12,42,8.60
2008,04,02,12,43,8.50
2008,04,02,12,44,8.50
2008,04,02,12,45,8.40
2008,04,02,12,46,8.30
2008,04,02,12,47,8.30
2008,04,02,12,48,8.30
2008,04,02,12,49,8.30
2008,04,02,12,50,8.40
2008,04,02,12,51,8.40
2008,04,02,12,52,8.40
2008,04,02,12,53,8.40
2008,04,02,12,54,8.50
2008,04,02,12,55,8.60
2008,04,02,12,56,8.60
2008,04,02,12,57,8.70
2008,04,02,12,58,8.70
2008,04,02,12,59,8.70
2008,04,02,13,00,8.80
2008,04,02,13,01,8.80
2008,04,02,13,02,8.90
2008,04,02,13,03,8.90
2008,04,02,13,04,8.80
2008,04,02,13,05,8.80
2008,04,02,13,06,8.80
2008,04,02,13,07,8.90
2008,04,02,13,08,8.90
2008,04,02,13,09,8.90
2008,04,02,13,10,8.90
2008,04,02,13,11,8.80
2008,04,02,13,12,8.90
2008,04,02,13,13,9.00
2008,04,02,13,14,9.10
2008,04,02,13,15,9.10
2008,04,02,13,16,9.10
2008,04,02,13,17,9.10
2008,04,02,13,18,9.10
2008,04,02,13,19,9.20
2008,04,02,13,20,9.20
2008,04,02,13,21,9.30
2008,04,02,13,22,9.20
2008,04,02,13,23,9.20
2008,04,02,13,24,9.10
2008,04,02,13,25,9.00
2008,04,02,13,26,8.90
2008,04,02,13,27,9.00
2008,04,02,13,28,9.10
2008,04,02,13,29,9.00
2008,04,02,13,30,9.10
2008,04,02,13,31,9.20
2008,04,02,13,32,9.30
2008,04,02,13,33,9.40
2008,04,02,13,34,9.30
2008,04,02,13,35,9.30
2008,04,02,13,36,9.30
2008,04,02,13,37,9.30
2008,04,02,13,38,9.30
2008,04,02,13,39,9.30
2008,04,02,13,40,9.30
2008,04,02,13,41,9.30
2008,04,02,13,42,9.20
2008,04,02,13,43,9.20
2008,04,02,13,44,9.30
2008,04,02,13,45,9.20
2008,04,02,13,46,9.20
2008,04,02,13,47,9.10
2008,04,02,13,48,9.10
2008,04,02,13,49,9.20
2008,04,02,13,50,9.30
2008,04,02,13,51,9.30
2008,04,02,13,52,9.30
2008,04,02,13,53,9.20
2008,04,02,13,54,9.20
2008,04,02,13,55,9.20
2008,04,02,13,56,9.20
2008,04,02,13,57,9.20
2008,04,02,13,58,9.20
2008,04,02,13,59,9.20
2008,04,02,14,00,9.20
2008,04,02,14,01,9.20
2008,04,02,14,02,9.20
2008,04,02,14,03,9.30
2008,04,02,14,04,9.40
2008,04,02,14,05,9.50
2008,04,02,14,06,9.50
2008,04,02,14,07,9.40
2008,04,02,14,08,9.40
2008,04,02,14,09,9.40
2008,04,02,14,10,9.40
2008,04,02,14,11,9.50
2008,04,02,14,12,9.60
2008,04,02,14,13,9.70
2008,04,02,14,14,9.60
2008,04,02,14,15,9.70
2008,04,02,14,16,9.60
2008,04,02,14,17,9.60
2008,04,02,14,18,9.70
2008,04,02,14,19,9.70
2008,04,02,14,20,9.70
2008,04,02,14,21,9.60
2008,04,02,14,22,9.60
2008,04,02,14,23,9.60
2008,04,02,14,24,9.60
2008,04,02,14,25,9.70
2008,04,02,14,26,9.60
2008,04,02,14,27,9.60
2008,04,02,14,28,9.70
2008,04,02,14,29,9.80
2008,04,02,14,30,9.90
2008,04,02,14,31,10.00
2008,04,02,14,32,10.00
2008,04,02,14,33,9.90
2008,04,02,14,34,9.90
2008,04,02,14,35,9.80
2008,04,02,14,36,9.70
2008,04,02,14,37,9.70
2008,04,02,14,38,9.80
2008,04,02,14,39,9.90
2008,04,02,14,40,9.90
2008,04,02,14,41,9.80
2008,04,02,14,42,9.80
2008,04,02,14,43,9.80
2008,04,02,14,44,9.90
2008,04,02,14,45,9.90
2008,04,02,14,46,9.80
2008,04,02,14,47,9.80
2008,04,02,14,48,9.80
2008,04,02,14,49,9.70
2008,04,02,14,50,9.70
2008,04,02,14,51,9.60
2008,04,02,14,52,9.70
2008,04,02,14,53,9.60
2008,04,02,14,54,9.60
2008,04,02,14,55,9.60
2008,04,02,14,56,9.60
2008,04,02,14,57,9.70
2008,04,02,14,58,9.70
2008,04,02,14,59,9.70
2008,04,02,15,00,9.70
2008,04,02,15,01,9.80
2008,04,02,15,02,9.80
2008,04,02,15,03,9.80
2008,04,02,15,04,9.80
2008,04,02,15,05,9.80
2008,04,02,15,06,9.80
2008,04,02,15,07,9.80
2008,04,02,15,08,9.80
2008,04,02,15,09,9.70
2008,04,02,15,10,9.60
2008,04,02,15,11,9.60
2008,04,02,15,12,9.50
2008,04,02,15,13,9.50
2008,04,02,15,14,9.50
2008,04,02,15,15,9.60
2008,04,02,15,16,9.60
2008,04,02,15,17,9.60
2008,04,02,15,18,9.60
2008,04,02,15,19,9.60
2008,04,02,15,20,9.60
2008,04,02,15,21,9.70
2008,04,02,15,22,9.70
2008,04,02,15,23,9.70
2008,04,02,15,24,9.90
2008,04,02,15,25,9.90
2008,04,02,15,26,9.90
2008,04,02,15,27,10.00
2008,04,02,15,28,10.00
2008,04,02,15,29,10.00
2008,04,02,15,30,10.00
2008,04,02,15,31,10.10
2008,04,02,15,32,10.00
2008,04,02,15,33,10.00
2008,04,02,15,34,10.00
2008,04,02,15,35,10.10
2008,04,02,15,36,10.20
2008,04,02,15,37,10.30
2008,04,02,15,38,10.50
2008,04,02,15,39,10.60
2008,04,02,15,40,10.60
2008,04,02,15,41,10.70
2008,04,02,15,42,10.70
2008,04,02,15,43,10.50
2008,04,02,15,44,10.40
2008,04,02,15,45,10.40
2008,04,02,15,46,10.40
2008,04,02,15,47,10.40
2008,04,02,15,48,10.40
2008,04,02,15,49,10.40
2008,04,02,15,50,10.30
2008,04,02,15,51,10.20
2008,04,02,15,52,10.20
2008,04,02,15,53,10.30
2008,04,02,15,54,10.30
2008,04,02,15,55,10.30
2008,04,02,15,56,10.30
2008,04,02,15,57,10.40
2008,04,02,15,58,10.50
2008,04,02,15,59,10.60
2008,04,02,16,00,10.70
2008,04,02,16,01,10.80
2008,04,02,16,02,10.90
2008,04,02,16,03,10.90
2008,04,02,16,04,10.90
2008,04,02,16,05,10.90
2008,04,02,16,06,10.90
2008,04,02,16,07,10.90
2008,04,02,16,08,10.90
2008,04,02,16,09,11.00
2008,04,02,16,10,11.00
2008,04,02,16,11,11.10
2008,04,02,16,12,11.10
2008,04,02,16,13,11.10
2008,04,02,16,14,11.20
2008,04,02,16,15,11.20
2008,04,02,16,16,11.20
2008,04,02,16,17,11.10
2008,04,02,16,18,11.10
2008,04,02,16,19,11.10
2008,04,02,16,20,11.00
2008,04,02,16,21,11.00
2008,04,02,16,22,10.80
2008,04,02,16,23,10.70
2008,04,02,16,24,10.50
2008,04,02,16,25,10.40
2008,04,02,16,26,10.30
2008,04,02,16,27,10.30
2008,04,02,16,28,10.30
2008,04,02,16,29,10.30
2008,04,02,16,30,10.30
2008,04,02,16,31,10.30
2008,04,02,16,32,10.20
2008,04,02,16,33,10.10
2008,04,02,16,34,10.00
2008,04,02,16,35,10.00
2008,04,02,16,36,10.10
2008,04,02,16,37,10.10
2008,04,02,16,38,10.10
2008,04,02,16,39,10.10
2008,04,02,16,40,10.10
2008,04,02,16,41,10.00
2008,04,02,16,42,10.00
2008,04,02,16,43,10.00
2008,04,02,16,44,10.00
2008,04,02,16,45,9.90
2008,04,02,16,46,10.00
2008,04,02,16,47,10.00
2008,04,02,16,48,10.10
2008,04,02,16,49,10.10
2008,04,02,16,50,10.20
2008,04,02,16,51,10.20
2008,04,02,16,52,10.20
2008,04,02,16,53,10.20
2008,04,02,16,54,10.20
2008,04,02,16,55,10.10
2008,04,02,16,56,10.10
2008,04,02,16,57,10.10
2008,04,02,16,58,10.10
2008,04,02,16,59,10.20
2008,04,02,17,00,10.20
2008,04,02,17,01,10.30
2008,04,02,17,02,10.20
2008,04,02,17,03,10.20
2008,04,02,17,04,10.20
2008,04,02,17,05,10.10
2008,04,02,17,06,10.10
2008,04,02,17,07,10.10
2008,04,02,17,08,10.20
2008,04,02,17,09,10.30
2008,04,02,17,10,10.30
2008,04,02,17,11,10.40
2008,04,02,17,12,10.40
2008,04,02,17,13,10.40
2008,04,02,17,14,10.40
2008,04,02,17,15,10.30
2008,04,02,17,16,10.20
2008,04,02,17,17,10.20
2008,04,02,17,18,10.10
2008,04,02,17,19,10.10
2008,04,02,17,20,10.10
2008,04,02,17,21,10.10
2008,04,02,17,22,10.20
2008,04,02,17,23,10.20
2008,04,02,17,24,10.10
2008,04,02,17,25,10.00
2008,04,02,17,26,10.00
2008,04,02,17,27,10.00
2008,04,02,17,28,10.10
2008,04,02,17,29,10.10
2008,04,02,17,30,10.20
2008,04,02,17,31,10.20
2008,04,02,17,32,10.20
2008,04,02,17,33,10.20
2008,04,02,17,34,10.20
2008,04,02,17,35,10.30
2008,04,02,17,36,10.30
2008,04,02,17,37,10.30
2008,04,02,17,38,10.30
2008,04,02,17,39,10.30
2008,04,02,17,40,10.20
2008,04,02,17,41,10.00
2008,04,02,17,42,9.90
2008,04,02,17,43,9.80
2008,04,02,17,44,9.70
2008,04,02,17,45,9.70
2008,04,02,17,46,9.60
2008,04,02,17,47,9.60
2008,04,02,17,48,9.50
2008,04,02,17,49,9.50
2008,04,02,17,50,9.50
2008,04,02,17,51,9.60
2008,04,02,17,52,9.60
2008,04,02,17,53,9.70
2008,04,02,17,54,9.80
2008,04,02,17,55,9.80
2008,04,02,17,56,9.90
2008,04,02,17,57,9.90
2008,04,02,17,58,9.90
2008,04,02,17,59,9.80
2008,04,02,18,00,9.80